Location: Newark
(35.6799°N, 139.7636°E)
Time: 17:26:33
(UTC+00:00)

Transit 2A - Pass Details

Date: 14 December 2019
Orbit: 601 x 958 km, 66.7° (Epoch: 28 January)

Event Time Altitude Azimuth Distance (km) Brightness Sun altitude
Rises 04:56:14 0° 347° (NNW) 2,881 8.6 22.3°
Reaches altitude 10° 04:58:53 10° 3° (N) 2,001 7.8 22.0°
Maximum altitude 05:02:24 22° 55° (NE) 1,406 7.0 21.6°
Drops below altitude 10° 05:06:07 10° 107° (ESE) 2,116 8.2 21.2°
Sets 05:08:59 0° 122° (ESE) 3,093 9.1 20.8°
